Lapse_Rate
7.9 8.0 8.1 8.4 8.3 8.2 8.1 8.0 7.8 7.6 7.6 7.5 7.5 7.3 7.3 7.4 7.3 7.4 7.4 7.5 7.5 7.4 7.3 7.1 7.1 7.2 7.1 7.0 7.0 6.9 6.8 6.7
7.9 7.8 8.2 8.4 8.2 8.2 8.1 8.0 7.8 7.6 7.6 7.5 7.4 7.2 7.2 7.3 7.3 7.3 7.3 7.4 7.4 7.5 7.4 7.2 7.1 7.3 7.3 7.2 7.0 7.0 6.9 6.8
7.7 7.8 8.2 8.1 8.4 8.4 8.2 8.0 7.9 7.7 7.5 7.4 7.3 7.1 7.0 7.0 7.2 7.2 7.3 7.4 7.4 7.4 7.4 7.3 7.2 7.2 7.2 7.2 7.2 7.1 7.0 7.0
7.7 7.6 8.0 8.1 8.3 8.3 8.2 8.1 8.0 7.8 7.5 7.3 7.1 7.0 7.0 6.9 6.9 7.0 7.1 7.2 7.2 7.2 7.2 7.2 7.2 7.2 7.2 7.2 7.2 7.2 7.0 6.9
7.7 7.6 8.1 8.1 8.1 8.2 8.2 8.1 7.9 7.7 7.4 7.2 7.0 6.9 6.8 6.8 6.8 6.8 6.8 6.8 6.9 6.9 6.9 7.0 7.0 7.0 7.1 7.1 7.1 7.1 7.1 7.0
7.6 7.7 7.8 8.0 8.0 8.1 8.2 8.1 7.9 7.7 7.5 7.3 7.1 6.9 6.8 6.7 6.7 6.6 6.6 6.6 6.6 6.7 6.8 6.8 6.8 6.9 7.0 7.0 6.9 6.9 7.0 7.0
8.1 7.9 7.8 7.9 7.9 8.3 8.1 8.0 7.8 7.6 7.5 7.2 7.0 6.9 6.6 6.6 6.6 6.5 6.5 6.6 6.5 6.6 6.5 6.5 6.6 6.7 6.8 6.8 6.8 6.8 6.8 6.8
8.2 8.2 8.2 7.9 8.1 8.3 8.1 7.8 7.7 7.5 7.5 7.3 7.0 6.8 6.6 6.6 6.6 6.4 6.5 6.4 6.4 6.5 6.5 6.5 6.6 6.6 6.7 6.8 6.9 6.9 6.8 6.8
8.6 8.4 8.4 8.3 8.1 8.1 7.8 7.7 7.8 7.4 7.4 7.3 7.1 6.9 6.8 6.8 6.7 6.5 6.5 6.6 6.7 6.8 6.9 6.8 6.6 6.6 6.5 6.7 6.8 7.0 6.9 6.9
8.4 8.4 8.4 8.3 8.1 8.0 7.9 7.8 7.6 7.5 7.3 7.2 7.1 7.1 6.9 6.9 6.9 6.8 6.8 6.8 6.9 6.9 6.9 6.9 6.8 6.8 6.8 6.6 6.7 6.7 7.0 7.0
8.3 8.5 8.3 8.3 8.1 8.0 7.9 7.9 7.6 7.5 7.2 7.2 7.2 7.1 7.0 7.0 7.0 6.9 6.9 6.9 6.9 7.0 7.0 6.8 6.7 6.8 6.6 6.9 6.9 6.8 6.7 6.8
8.4 8.4 8.2 8.2 8.1 7.8 7.9 7.8 7.6 7.4 7.4 7.3 7.2 7.0 7.0 7.0 6.9 6.9 7.0 6.9 7.0 7.0 6.8 6.7 6.8 6.7 6.6 6.8 6.8 6.6 6.8 6.9
8.1 8.3 8.3 8.2 8.1 7.9 7.9 7.8 7.5 7.4 7.3 7.2 7.2 7.0 7.0 7.1 7.0 6.9 6.9 6.9 6.9 7.0 6.8 6.7 6.7 6.8 6.7 6.7 6.6 6.8 6.8 6.9
7.8 8.2 8.2 8.2 8.2 8.0 7.6 7.7 7.6 7.2 7.2 7.2 7.1 7.1 7.3 7.3 7.1 7.1 7.0 6.9 6.8 6.7 6.7 6.6 6.5 6.6 6.5 6.7 6.6 6.1 5.6 6.1
7.6 7.9 8.1 8.1 8.2 8.0 7.7 7.5 7.3 7.1 7.2 7.3 7.2 7.2 7.3 7.3 7.2 7.1 7.1 6.9 6.8 6.7 6.7 6.6 6.6 6.7 6.5 6.5 6.6 6.2 5.8 6.0
8.0 7.8 7.7 7.9 8.1 7.9 7.9 7.5 7.8 7.7 7.4 7.3 7.1 7.2 7.2 7.0 7.0 7.0 6.9 7.0 6.9 6.8 6.8 6.7 6.6 6.3 6.0 6.1 6.2 6.2 6.3 6.4
8.2 8.1 7.7 7.7 7.8 8.0 7.9 7.8 7.8 7.5 7.2 7.2 7.2 7.2 7.1 7.1 7.1 6.9 6.9 6.8 6.8 6.7 6.6 6.0 6.0 6.0 6.0 6.1 6.0 6.2 6.1 6.2
8.0 8.2 7.8 7.6 7.5 7.8 7.6 7.7 7.6 7.4 7.5 7.4 7.4 7.3 7.1 7.2 7.0 6.9 6.8 6.8 6.7 6.6 6.1 6.2 6.1 6.2 6.2 6.2 6.3 6.4 6.3 6.2
7.7 7.9 8.1 7.6 7.6 7.7 7.6 7.5 7.6 7.5 7.5 7.7 7.5 7.2 7.1 7.1 7.1 7.2 7.0 6.7 6.5 6.3 6.5 6.7 6.7 6.7 6.4 6.3 6.4 6.4 6.4 6.2
7.2 8.0 8.0 7.9 7.8 7.9 7.8 7.5 7.7 7.4 7.4 7.7 7.7 7.3 7.1 7.0 7.3 7.1 7.1 6.9 6.6 6.6 6.8 6.8 6.7 6.6 6.3 6.2 6.3 6.2 6.1 6.2
Wind_Speed
20 22 20 19 20 20 23 23 22 21 21 20 18 18 18 16 14 13 13 12 11 10 10 7 5 3 1 1 3 6 9 3
17 20 21 20 19 20 22 23 22 21 20 20 18 16 16 15 14 12 12 12 11 9 8 6 5 4 2 2 6 10 10 3
18 17 19 20 19 17 20 19 21 20 18 19 18 15 15 15 15 18 12 11 10 9 8 6 6 6 5 5 9 12 2 5
18 18 17 20 19 20 20 19 19 19 18 18 16 14 15 15 16 15 12 11 10 8 8 9 12 13 12 9 12 4 5 1
20 18 16 16 13 17 17 18 18 18 19 18 16 15 14 13 14 13 13 13 12 11 11 13 14 4 1 3 1 4 6 5
20 21 17 16 14 12 16 12 16 14 20 20 15 11 12 13 11 14 13 15 14 15 16 5 3 6 5 4 5 7 4 4
20 21 17 16 14 12 12 12 12 17 19 20 19 12 9 12 11 13 14 15 13 9 7 7 9 7 7 6 5 5 3 6
20 21 19 17 16 13 10 10 15 11 15 19 20 15 9 9 8 9 10 11 10 10 7 6 5 7 7 7 4 4 6 4
22 21 20 18 19 14 12 12 13 9 12 9 18 17 13 11 9 9 10 12 9 8 8 8 3 3 3 7 5 6 6 6
20 19 20 19 17 14 12 10 11 13 12 14 19 20 16 13 9 8 11 10 11 7 5 4 5 5 4 4 5 4 8 6
20 20 21 20 17 13 13 13 12 12 17 18 21 22 19 14 10 10 12 9 8 5 4 5 5 6 7 7 6 5 4 7
19 17 19 18 13 12 12 11 12 13 12 14 19 19 19 16 11 9 13 9 4 5 6 3 7 4 4 1 3 3 4 5
20 21 19 16 15 14 13 13 12 12 12 15 16 17 18 14 9 10 9 8 7 8 8 8 3 3 5 6 3 7 6 3
21 23 22 19 15 14 12 12 13 12 11 12 17 17 17 13 11 10 11 9 8 5 6 6 5 5 5 4 6 3 6 5
21 24 24 20 20 13 12 12 11 12 12 11 13 17 17 16 13 10 9 8 5 7 7 8 5 1 4 3 3 4 4 3
22 22 24 21 22 17 20 15 15 13 12 12 12 15 14 18 15 11 8 7 7 7 3 3 4 4 2 2 3 4 3 4
19 22 23 22 22 19 16 17 13 12 11 15 14 14 14 15 11 10 7 4 5 7 6 6 4 3 4 5 3 3 3 5
19 22 23 23 22 23 20 20 16 13 14 12 10 7 6 8 8 8 7 8 8 7 8 10 6 5 4 3 4 4 4 4
20 23 23 24 24 24 20 20 18 18 17 11 11 8 7 9 11 10 8 7 8 8 8 7 6 5 3 3 1 1 1 2
20 22 23 23 23 24 21 19 13 12 15 11 9 9 10 13 11 11 11 11 9 8 7 6 6 5 5 2 3 3 1 1
Wind_Direction
160 167 156 147 148 149 145 147 151 151 152 151 153 155 153 153 155 153 150 153 153 146 143 148 150 147 118 32 310 290 290 276
166 170 170 168 164 150 150 153 156 157 157 156 158 158 159 159 160 164 160 159 158 153 151 157 164 169 184 264 271 266 248 275
171 173 174 173 173 162 154 155 159 159 161 161 160 172 177 165 191 157 167 165 164 162 164 177 198 202 209 239 265 251 272 221
174 176 176 175 178 167 174 171 174 178 180 173 183 186 189 183 156 157 166 167 167 173 185 201 221 211 182 215 236 14 239 275
179 177 175 180 183 170 180 179 182 188 189 182 202 192 186 186 159 172 179 182 185 187 197 220 219 287 211 306 342 230 252 211
185 181 175 186 185 174 186 183 189 188 190 184 207 202 181 203 184 189 196 181 217 194 198 163 218 220 249 254 241 277 222 213
190 187 179 185 201 183 196 193 190 193 185 185 208 200 189 200 198 196 198 185 209 208 141 197 201 200 206 222 217 229 270 280
188 191 184 188 200 187 198 200 184 192 198 189 207 203 187 202 202 210 205 208 206 215 218 199 222 217 192 213 217 223 204 236
190 192 186 194 197 195 196 192 165 184 197 190 198 211 188 213 208 211 212 203 213 214 232 237 172 288 256 191 217 205 235 227
192 194 188 192 194 196 198 176 206 181 196 188 198 213 212 207 211 206 213 203 205 209 214 211 245 229 223 222 212 245 213 242
188 193 196 191 195 192 196 185 202 190 196 199 195 211 210 205 213 204 210 211 215 212 214 191 217 227 208 190 202 223 287 269
185 185 195 188 190 201 192 195 195 200 197 203 186 203 203 206 214 204 207 217 204 214 223 209 241 205 251 252 225 241 206 236
184 189 188 187 193 194 192 197 196 202 198 198 188 196 196 197 219 201 202 209 198 199 210 236 242 264 268 257 210 211 228 228
192 195 189 193 196 197 199 197 195 199 193 190 193 196 195 195 214 201 196 213 220 221 214 227 231 223 253 269 271 247 216 182
197 197 194 193 199 196 197 194 194 193 193 192 192 196 194 202 204 210 191 209 215 220 217 217 225 55 279 281 264 265 9 279
201 196 198 194 198 194 196 196 194 193 191 190 188 191 193 195 199 206 206 200 212 206 201 171 139 159 146 257 290 315 268 275
210 201 197 196 192 205 194 203 198 186 191 183 184 186 193 194 195 194 170 145 133 142 133 147 165 150 164 161 207 254 256 267
203 203 198 197 191 202 197 196 192 185 184 182 173 162 152 144 139 143 139 149 144 148 162 175 199 191 183 188 215 226 238 261
196 201 204 195 189 192 205 193 202 185 177 166 155 145 146 152 143 147 150 150 149 153 156 144 162 165 166 155 166 207 266 294
191 204 204 195 190 190 198 197 199 187 167 159 164 162 152 151 144 147 145 149 146 141 137 133 121 123 133 117 130 100 70 10